Regional Weather Roundup
Issued by NWS Jackson, KY

Home | Current Version | Previous Version | Text Only | Print | Product List | Glossary Off
Versions: 1 2 3 4 5 6 7 8 9 10 11 12 13 14 15 16 17 18 19 20 21 22 23 24 25 26 27 28 29 30 31 32 33 34 35 36 37 38 39 40 41 42 43 44 45 46 47 48 49 50

000
ASUS43 KJKL 261219
RWRJKL

EAST KENTUCKY HOURLY WEATHER ROUNDUP
NATIONAL WEATHER SERVICE JACKSON KY
700 AM EST FRI DEC 26 2014

NOTE: "FAIR" INDICATES FEW OR NO CLOUDS BELOW 12,000 FEET WITH
NO SIGNIFICANT WEATHER AND/OR OBSTRUCTIONS TO VISIBILITY.

* THESE REPORTS ARE NOT UNDER NWS QUALITY CONTROL AND MAY NOT
  REPORT WEATHER SUCH AS PRECIPITATION AND FOG.

KYZ079-080-083-085-087-088-110-112-115-119-120-261300
...EASTERN KENTUCKY...

CITY           SKY/WX    TMP DP  RH WIND       PRES   REMARKS
JACKSON        PTCLDY    31  27  85 W3        30.27R
6HR MIN TEMP:  30; 6HR MAX TEMP:  35;

LONDON         CLEAR     27  21  78 CALM      30.28R
6HR MIN TEMP:  26; 6HR MAX TEMP:  31;

SOMERSET*      PTCLDY    27  27 100 CALM      30.30R
MONTICELLO*    PTCLDY    23  22  96 CALM      30.31R
6HR MIN TEMP:  23; 6HR MAX TEMP:  28;

MIDDLESBORO*   PTCLDY    26  25  96 CALM      30.31S
6HR MIN TEMP:  26; 6HR MAX TEMP:  29;

HARLAN APT*    CLOUDY    30  30 100 CALM      30.29R VSB<1/4
HAZARD APT*    SUNNY     28  28 100 CALM      30.28R
BLACK MTN*       N/A     39   1  20 SW7         N/A  WCI  34
PIKEVILLE APT* CLEAR     32  28  86 S5        30.27R WCI  27
BIG SANDY*     SUNNY     31  30  97 CALM      30.28R
6HR MIN TEMP:  30; 6HR MAX TEMP:  34;

MOREHEAD APT*  SUNNY     30  28  93 S3        30.30R
ASHLAND*       CLEAR    N/A N/A N/A SE3       30.27S
$$

KYZ035-036-041-042-044-050-067-078-099-261300
...CENTRAL KENTUCKY...

CITY           SKY/WX    TMP DP  RH WIND       PRES   REMARKS
MT STERLING*   PTCLDY    32  32 100 SW8       30.29R WCI  25
FLEMING/MASON* CLEAR     32  30  93 S7        30.27S WCI  26
DANVILLE*      PTCLDY    30  28  93 S5        30.29R WCI  25
RICHMOND*      PTCLDY    34  30  86 S7        30.27R WCI  28
LEXINGTON      PTCLDY    32  29  88 S10       30.26R WCI  24
6HR MIN TEMP:  30; 6HR MAX TEMP:  33;

FRANKFORT      CLEAR     30  27  88 S5        30.25R WCI  25
6HR MIN TEMP:  27; 6HR MAX TEMP:  32;

$$

KYZ091>093-OHZ055-061-077-WVZ005-015-034-035-042-261300
...SOUTHERN OHIO/WEST VIRGINIA...

CITY           SKY/WX    TMP DP  RH WIND       PRES   REMARKS
COVINGTON      PTCLDY    32  26  78 S5        30.21S WCI  27
COLUMBUS       CLEAR     29  26  89 SE3       30.24S
DAYTON         CLEAR     33  30  88 S9        30.20S WCI  25
WILMINGTON     CLEAR     31  28  89 S7        30.22R WCI  24
HUNTINGTON     CLEAR     26  25  96 SE3       30.28R
CHARLESTON     PTCLDY    26  24  92 CALM      30.29R FOG
PINEVILLE*     CLOUDY    27  27 100 MISG      30.32S
BECKLEY        CLEAR     28  22  78 S5        30.25R WCI  23
BLUEFIELD      CLEAR     37  20  50 W5        30.26R WCI  33
$$

VAZ002-007-008-TNZ017-027-036-066-071-261300
...SOUTHWEST VIRGINIA/EAST TENNESSEE...

CITY           SKY/WX    TMP DP  RH WIND       PRES   REMARKS
WISE*          PTCLDY    32  27  80 SW3       30.26R
JONESVILLE*    MOSUNNY   21  19  93 CALM      30.33R
ABINGDON*      PTCLDY    31  29  92 CALM      30.28S
BRISTOL        CLEAR     25  23  92 CALM      30.31R
OAK RIDGE      FOG       30  29  96 CALM      30.32R VSB 1/4
CROSSVILLE     PTCLDY    30  26  85 CALM      30.27R
NASHVILLE      MOCLDY    33  31  92 CALM      30.28R
$$

...KEY TO REMARKS...
VSB - VISIBILITY IN MILES
WCI - WIND CHILL INDEX
HX  - HEAT INDEX

$$



USA.gov is the U.S. government's official web portal to all federal, state and local government web resources and services.